When you browse on this site, cookies collect data to enhance your experience and personalize the content and advertising you see.
Visit our Privacy Policy to learn more. By continuing to use the site, you agree to this use of cookies and data.
  • In Austria
  • List of Countries
  • For 7 days
  • Water Temperature
  • Weather Map
  • News
  • Weather Widgets
  • user-avatar
    Login

    Hourly Weather Pachuquilla

    Today, 17 August, Saturday

    Time Temperature Precipitation Wind Pressure Humidity
    00:00 +13°C° 0 mm 1 mps 571 mmHg 86%
    01:00 +13°C° 0 mm 1 mps 571 mmHg 85%
    02:00 +13°C° 0 mm 1 mps 570 mmHg 84%
    03:00 +12°C° 0 mm 1 mps 570 mmHg 85%
    04:00 +12°C° 0 mm 1 mps 570 mmHg 85%
    05:00 +12°C° 0 mm 1 mps 570 mmHg 86%
    06:00 +14°C° 0 mm 1 mps 571 mmHg 78%
    07:00 +16°C° 0 mm 0 mps 573 mmHg 70%
    08:00 +18°C° 0 mm 0 mps 574 mmHg 62%
    09:00 +21°C° 0 mm 1 mps 575 mmHg 57%
    10:00 +23°C° 0 mm 1 mps 575 mmHg 51%
    11:00 +24°C° 0 mm 1 mps 575 mmHg 46%
    12:00 +24°C° 0.2 mm 2 mps 575 mmHg 48%
    13:00 +24°C° 0.2 mm 3 mps 574 mmHg 51%
    14:00 +23°C° 0.2 mm 5 mps 573 mmHg 54%
    15:00 +22°C° 0.6 mm 4 mps 573 mmHg 60%
    16:00 +21°C° 0.6 mm 4 mps 572 mmHg 66%
    17:00 +19°C° 0.6 mm 4 mps 571 mmHg 73%
    18:00 +18°C° 0.2 mm 3 mps 571 mmHg 79%
    19:00 +16°C° 0.2 mm 2 mps 571 mmHg 85%
    20:00 +15°C° 0.2 mm 2 mps 571 mmHg 90%
    21:00 +14°C° 0 mm 2 mps 571 mmHg 87%
    22:00 +14°C° 0 mm 1 mps 571 mmHg 83%
    23:00 +13°C° 0 mm 1 mps 571 mmHg 80%

    Tomorrow, 18 August, Sunday

    Time Temperature Precipitation Wind Pressure Humidity
    00:00 +13°C° 0 mm 1 mps 570 mmHg 78%
    01:00 +13°C° 0 mm 1 mps 570 mmHg 77%
    02:00 +11°C° 0 mm 0 mps 569 mmHg 75%
    03:00 +11°C° 0 mm 0 mps 569 mmHg 76%
    04:00 +11°C° 0 mm 0 mps 569 mmHg 77%
    05:00 +11°C° 0 mm 0 mps 569 mmHg 78%
    06:00 +13°C° 0 mm 0 mps 571 mmHg 71%
    07:00 +15°C° 0 mm 0 mps 572 mmHg 65%
    08:00 +17°C° 0 mm 0 mps 573 mmHg 58%
    09:00 +21°C° 0 mm 1 mps 574 mmHg 52%
    10:00 +22°C° 0 mm 1 mps 574 mmHg 46%
    11:00 +24°C° 0 mm 2 mps 575 mmHg 40%
    12:00 +24°C° 0 mm 3 mps 574 mmHg 42%
    13:00 +23°C° 0 mm 4 mps 574 mmHg 44%
    14:00 +25°C° 0 mm 5 mps 573 mmHg 45%
    15:00 +22°C° 0.2 mm 5 mps 573 mmHg 55%
    16:00 +21°C° 0.2 mm 4 mps 572 mmHg 64%
    17:00 +19°C° 0.2 mm 4 mps 571 mmHg 73%
    18:00 +18°C° 0.2 mm 3 mps 571 mmHg 80%
    19:00 +16°C° 0.2 mm 3 mps 571 mmHg 86%
    20:00 +15°C° 0.2 mm 2 mps 571 mmHg 92%
    21:00 +14°C° 0 mm 2 mps 571 mmHg 92%
    22:00 +14°C° 0 mm 2 mps 570 mmHg 92%
    23:00 +13°C° 0 mm 2 mps 570 mmHg 92%

    Day after tomorrow, 19 August, Monday

    Time Temperature Precipitation Wind Pressure Humidity
    00:00 +13°C° 0 mm 1 mps 570 mmHg 93%
    01:00 +13°C° 0 mm 1 mps 570 mmHg 93%
    02:00 +13°C° 0 mm 1 mps 569 mmHg 94%
    03:00 +13°C° 0 mm 1 mps 570 mmHg 94%
    04:00 +13°C° 0 mm 1 mps 570 mmHg 94%
    05:00 +12°C° 0 mm 1 mps 570 mmHg 94%
    06:00 +14°C° 0 mm 1 mps 571 mmHg 88%
    07:00 +15°C° 0 mm 1 mps 571 mmHg 82%
    08:00 +16°C° 0 mm 1 mps 572 mmHg 76%
    09:00 +18°C° 0 mm 2 mps 573 mmHg 70%
    10:00 +20°C° 0 mm 3 mps 573 mmHg 64%
    11:00 +21°C° 0 mm 4 mps 574 mmHg 57%
    12:00 +21°C° 0.4 mm 5 mps 573 mmHg 60%
    13:00 +21°C° 0.4 mm 5 mps 573 mmHg 63%
    14:00 +20°C° 0.4 mm 6 mps 572 mmHg 66%
    15:00 +19°C° 0.1 mm 6 mps 572 mmHg 69%
    16:00 +17°C° 0.1 mm 5 mps 571 mmHg 72%
    17:00 +16°C° 0.1 mm 5 mps 571 mmHg 75%
    18:00 +15°C° 0 mm 4 mps 571 mmHg 81%
    19:00 +14°C° 0 mm 3 mps 571 mmHg 86%
    20:00 +13°C° 0 mm 3 mps 571 mmHg 92%
    21:00 +13°C° 0 mm 2 mps 571 mmHg 92%
    22:00 +12°C° 0 mm 2 mps 571 mmHg 91%
    23:00 +12°C° 0 mm 2 mps 571 mmHg 91%

    20 August, Tuesday

    Time Temperature Precipitation Wind Pressure Humidity
    00:00 +11°C° 0 mm 1 mps 570 mmHg 90%
    01:00 +10°C° 0 mm 1 mps 569 mmHg 89%
    02:00 +10°C° 0 mm 1 mps 569 mmHg 88%
    03:00 +9°C° 0 mm 1 mps 569 mmHg 87%
    04:00 +9°C° 0 mm 1 mps 569 mmHg 86%
    05:00 +9°C° 0 mm 1 mps 569 mmHg 85%
    06:00 +11°C° 0 mm 1 mps 570 mmHg 77%
    07:00 +13°C° 0 mm 2 mps 572 mmHg 69%
    08:00 +15°C° 0 mm 2 mps 573 mmHg 61%
    09:00 +17°C° 0 mm 3 mps 573 mmHg 56%
    10:00 +19°C° 0 mm 4 mps 574 mmHg 52%
    11:00 +21°C° 0 mm 4 mps 575 mmHg 47%
    12:00 +21°C° 0 mm 5 mps 574 mmHg 50%
    13:00 +21°C° 0 mm 6 mps 574 mmHg 52%
    14:00 +21°C° 0 mm 6 mps 573 mmHg 54%
    15:00 +20°C° 0.1 mm 6 mps 573 mmHg 61%
    16:00 +17°C° 0.1 mm 5 mps 572 mmHg 68%
    17:00 +15°C° 0.1 mm 5 mps 572 mmHg 75%
    18:00 +15°C° 0 mm 4 mps 572 mmHg 80%
    19:00 +14°C° 0 mm 3 mps 572 mmHg 84%
    20:00 +14°C° 0 mm 2 mps 572 mmHg 89%
    21:00 +13°C° 0 mm 2 mps 572 mmHg 90%
    22:00 +13°C° 0 mm 2 mps 572 mmHg 91%
    23:00 +12°C° 0 mm 2 mps 572 mmHg 92%

    21 August, Wednesday

    Time Temperature Precipitation Wind Pressure Humidity
    00:00 +12°C° 0 mm 1 mps 572 mmHg 92%
    01:00 +12°C° 0 mm 1 mps 571 mmHg 91%
    02:00 +12°C° 0 mm 1 mps 571 mmHg 90%
    03:00 +11°C° 0 mm 1 mps 571 mmHg 91%
    04:00 +11°C° 0 mm 1 mps 571 mmHg 92%
    05:00 +10°C° 0 mm 1 mps 570 mmHg 93%
    06:00 +12°C° 0 mm 1 mps 571 mmHg 86%
    07:00 +13°C° 0 mm 1 mps 572 mmHg 79%
    08:00 +15°C° 0 mm 1 mps 573 mmHg 72%
    09:00 +16°C° 0 mm 2 mps 573 mmHg 68%
    10:00 +18°C° 0 mm 2 mps 574 mmHg 64%
    11:00 +19°C° 0 mm 2 mps 574 mmHg 60%
    12:00 +19°C° 0.6 mm 3 mps 573 mmHg 63%
    13:00 +19°C° 0.6 mm 3 mps 573 mmHg 67%
    14:00 +19°C° 0.6 mm 3 mps 572 mmHg 70%
    15:00 +18°C° 0.7 mm 3 mps 572 mmHg 74%
    16:00 +17°C° 0.7 mm 3 mps 572 mmHg 79%
    17:00 +16°C° 0.7 mm 3 mps 571 mmHg 83%
    18:00 +14°C° 0.2 mm 3 mps 571 mmHg 86%
    19:00 +14°C° 0.2 mm 2 mps 572 mmHg 90%
    20:00 +13°C° 0.2 mm 2 mps 572 mmHg 93%
    21:00 +13°C° 0.9 mm 2 mps 572 mmHg 93%
    22:00 +13°C° 0.9 mm 2 mps 572 mmHg 93%
    23:00 +14°C° 0.9 mm 1 mps 572 mmHg 93%

    22 August, Thursday

    Time Temperature Precipitation Wind Pressure Humidity
    00:00 +13°C° 0.2 mm 1 mps 572 mmHg 93%
    01:00 +13°C° 0.2 mm 1 mps 571 mmHg 93%
    02:00 +12°C° 0.2 mm 0 mps 571 mmHg 93%
    03:00 +12°C° 0 mm 0 mps 571 mmHg 93%
    04:00 +11°C° 0 mm 0 mps 571 mmHg 93%
    05:00 +11°C° 0 mm 0 mps 571 mmHg 94%
    06:00 +13°C° 0 mm 0 mps 572 mmHg 88%
    07:00 +14°C° 0 mm 0 mps 573 mmHg 81%
    08:00 +16°C° 0 mm 0 mps 574 mmHg 75%
    09:00 +19°C° 0.5 mm 1 mps 574 mmHg 71%
    10:00 +20°C° 0.5 mm 1 mps 574 mmHg 67%
    11:00 +21°C° 0.5 mm 1 mps 574 mmHg 63%
    12:00 +21°C° 1.5 mm 1 mps 574 mmHg 64%
    13:00 +20°C° 1.5 mm 2 mps 573 mmHg 65%
    14:00 +20°C° 1.5 mm 2 mps 573 mmHg 67%
    15:00 +19°C° 1.5 mm 3 mps 573 mmHg 72%
    16:00 +18°C° 1.5 mm 3 mps 572 mmHg 77%
    17:00 +17°C° 1.5 mm 3 mps 572 mmHg 82%
    18:00 +16°C° 0.6 mm 3 mps 572 mmHg 85%
    19:00 +15°C° 0.6 mm 2 mps 572 mmHg 89%
    20:00 +14°C° 0.6 mm 2 mps 572 mmHg 92%
    21:00 +14°C° 1 mm 2 mps 572 mmHg 91%
    22:00 +14°C° 1 mm 2 mps 572 mmHg 91%
    23:00 +14°C° 1 mm 1 mps 572 mmHg 90%
    Show more